TimeMST,TemperatureF,Dew PointF,Humidity,Sea Level PressureIn,VisibilityMPH,Wind Direction,Wind SpeedMPH,Gust SpeedMPH,PrecipitationIn,Events,Conditions,WindDirDegrees,DateUTC
12:53 AM,59.0,35.1,41,29.96,10.0,SSW,8.1,-,N/A,,Clear,200,2012-10-04 07:53:00
1:53 AM,57.0,36.0,45,29.97,10.0,South,9.2,-,N/A,,Clear,190,2012-10-04 08:53:00
2:53 AM,57.0,34.0,42,29.97,10.0,SSW,6.9,-,N/A,,Clear,210,2012-10-04 09:53:00
3:53 AM,55.9,34.0,44,29.98,10.0,South,8.1,-,N/A,,Clear,180,2012-10-04 10:53:00
4:53 AM,55.0,32.0,42,29.99,10.0,SSW,8.1,-,N/A,,Clear,200,2012-10-04 11:53:00
5:53 AM,52.0,32.0,47,30.02,10.0,SSW,6.9,-,N/A,,Clear,210,2012-10-04 12:53:00
6:53 AM,53.1,30.0,41,30.05,10.0,SSW,8.1,-,N/A,,Clear,200,2012-10-04 13:53:00
7:53 AM,61.0,34.0,36,30.04,10.0,SSW,5.8,-,N/A,,Clear,200,2012-10-04 14:53:00
8:53 AM,72.0,32.0,23,30.02,10.0,Variable,3.5,-,N/A,,Clear,0,2012-10-04 15:53:00
9:53 AM,77.0,34.0,21,30.03,-9999.0,South,6.9,-,N/A,,Clear,180,2012-10-04 16:53:00
10:53 AM,79.0,28.9,16,30.02,-9999.0,North,-9999.0,-,N/A,,Clear,0,2012-10-04 17:53:00
11:53 AM,79.0,27.0,15,30.03,10.0,SW,20.7,26.5,N/A,,Clear,230,2012-10-04 18:53:00
12:53 PM,79.0,30.0,17,30.00,10.0,South,11.5,20.7,N/A,,Clear,180,2012-10-04 19:53:00
1:53 PM,81.0,25.0,13,29.98,10.0,SW,17.3,31.1,N/A,,Clear,220,2012-10-04 20:53:00
3:53 PM,79.0,26.1,14,29.96,10.0,SW,15.0,25.3,N/A,,Clear,220,2012-10-04 22:53:00
4:53 PM,77.0,27.0,16,29.96,10.0,SW,16.1,-,N/A,,Clear,230,2012-10-04 23:53:00
6:53 PM,69.1,30.9,24,30.01,10.0,SSW,4.6,-,N/A,,Clear,210,2012-10-05 01:53:00
7:53 PM,66.9,30.9,26,30.00,10.0,Calm,Calm,-,N/A,,Clear,0,2012-10-05 02:53:00
8:53 PM,62.1,34.0,35,29.99,10.0,South,4.6,-,N/A,,Clear,190,2012-10-05 03:53:00
9:53 PM,60.1,37.0,42,29.98,10.0,South,3.5,-,N/A,,Clear,190,2012-10-05 04:53:00
10:53 PM,55.9,34.0,44,29.99,10.0,SW,3.5,-,N/A,,Clear,230,2012-10-05 05:53:00
11:53 PM,57.9,33.1,39,29.98,10.0,Calm,Calm,-,N/A,,Clear,0,2012-10-05 06:53:00